Total_Precipitation_Accumulation
2.30 2.29 2.06 1.80 1.70 1.77 1.76 1.88 2.08 2.17 2.35 2.07 1.96 1.80 1.68 1.72 1.77 1.71 1.80 1.68 1.99 1.67 0.91 0.36 0.23 0.23 0.18 0.16 0.22 0.11 0.12 0.13 0.21 0.30 0.30 0.11 0.04 0.02 0.01 0.00 0.00 0.03 0.07 0.12 0.15 0.25 0.04 0.00 0.00 0.02 0.03 0.00 0.00 0.01
3.03 2.63 2.80 2.18 1.70 1.50 1.31 1.39 1.66 1.82 1.74 1.54 1.50 1.31 1.22 1.43 1.54 1.63 1.81 1.72 1.69 1.70 1.19 0.48 0.26 0.14 0.07 0.04 0.05 0.04 0.13 0.15 0.28 0.35 0.32 0.18 0.11 0.05 0.03 0.03 0.00 0.01 0.00 0.05 0.10 0.03 0.00 0.00 0.01 0.01 0.00 0.00 0.00 0.00
2.72 3.01 2.88 3.15 2.44 1.91 1.69 1.58 1.72 1.92 1.46 1.38 1.24 1.03 0.97 1.05 1.06 1.14 1.15 1.23 1.31 1.33 0.79 0.37 0.16 0.05 0.02 0.00 0.00 0.11 0.11 0.16 0.25 0.23 0.41 0.27 0.17 0.08 0.06 0.02 0.01 0.01 0.00 0.01 0.01 0.00 0.00 0.00 0.00 0.01 0.00 0.00 0.00 0.01
2.10 2.41 2.54 2.95 3.29 2.77 2.36 2.05 1.97 1.86 1.36 1.36 1.34 1.11 0.93 1.04 0.97 1.05 0.81 0.69 0.87 0.97 0.81 0.22 0.02 0.03 0.01 0.02 0.03 0.03 0.09 0.18 0.30 0.50 0.49 0.36 0.21 0.07 0.05 0.02 0.02 0.02 0.00 0.00 0.00 0.00 0.00 0.00 0.00 0.00 0.00 0.00 0.00 0.00
2.12 1.99 2.00 2.24 2.71 2.58 2.49 2.27 1.96 1.60 1.19 1.09 1.14 1.06 0.90 1.21 1.00 0.75 0.62 0.49 0.50 0.98 1.03 0.33 0.19 0.03 0.02 0.05 0.04 0.06 0.11 0.31 0.37 0.65 0.73 0.38 0.17 0.13 0.06 0.03 0.01 0.00 0.00 0.00 0.00 0.00 0.00 0.00 0.00 0.00 0.00 0.00 0.00 0.00
1.64 1.70 1.83 1.71 1.92 2.13 2.14 1.89 1.73 1.53 1.31 1.14 1.10 1.29 1.00 1.20 1.22 1.13 1.69 1.09 0.58 0.69 1.34 1.03 0.48 0.16 0.07 0.10 0.10 0.16 0.24 0.45 0.71 0.59 0.63 0.38 0.16 0.29 0.27 0.06 0.00 0.00 0.00 0.00 0.00 0.00 0.00 0.00 0.00 0.00 0.00 0.00 0.00 0.00
1.38 1.48 1.76 1.96 1.46 1.56 1.87 1.84 1.48 1.54 1.45 1.35 1.42 1.51 1.10 1.52 1.63 1.62 1.32 1.18 0.86 1.09 1.90 2.06 1.18 0.56 0.15 0.24 0.29 0.32 0.33 0.60 1.02 0.85 0.59 0.40 0.34 0.65 0.50 0.12 0.00 0.01 0.01 0.01 0.01 0.00 0.00 0.00 0.00 0.00 0.00 0.00 0.00 0.00
1.26 1.27 1.54 1.93 1.59 1.21 1.38 1.81 1.66 1.69 1.47 1.96 1.78 1.82 1.88 2.47 2.50 2.19 0.74 0.68 0.90 1.99 2.75 2.63 1.71 1.22 0.42 0.69 0.59 0.43 0.43 0.61 1.31 0.93 0.43 0.32 0.48 0.61 0.53 0.04 0.05 0.04 0.04 0.02 0.01 0.02 0.01 0.01 0.00 0.00 0.00 0.00 0.00 0.00
1.56 1.50 1.46 1.61 1.82 1.32 1.25 1.61 1.95 1.83 1.88 2.98 2.80 2.80 3.22 2.70 2.17 2.08 1.43 1.35 1.63 2.71 2.97 1.90 1.34 1.09 0.88 0.92 0.71 0.82 0.62 1.01 1.14 0.87 0.29 0.36 0.47 0.67 0.17 0.09 0.11 0.14 0.15 0.17 0.13 0.06 0.06 0.05 0.02 0.03 0.02 0.03 0.05 0.05
1.99 2.05 1.67 1.42 1.73 1.60 1.51 1.56 1.80 2.12 2.40 3.19 3.67 3.42 2.94 1.90 1.67 2.24 3.63 4.37 4.86 3.99 2.47 1.44 0.82 0.76 1.17 1.06 1.03 1.20 1.19 1.10 1.21 0.63 0.48 0.76 0.38 0.09 0.07 0.12 0.09 0.15 0.30 0.34 0.45 0.33 0.21 0.27 0.15 0.10 0.15 0.11 0.13 0.16
2.15 2.20 1.96 1.67 1.56 1.45 1.47 1.67 1.97 2.52 3.20 2.79 2.90 2.77 2.30 2.01 2.16 3.53 4.50 4.00 3.04 2.28 1.38 0.86 0.63 0.71 0.80 0.95 0.87 1.08 1.56 1.40 1.32 0.69 0.60 0.69 0.56 0.17 0.07 0.05 0.04 0.08 0.18 0.14 0.31 0.34 0.23 0.38 0.44 0.30 0.31 0.33 0.35 0.37
2.38 2.42 2.12 1.65 1.51 1.33 1.45 1.74 1.92 1.74 2.11 2.22 2.03 2.01 2.34 3.21 3.88 3.76 3.19 1.83 1.10 0.86 0.92 0.81 0.58 0.54 0.86 0.94 1.38 1.52 1.38 1.25 1.00 0.62 0.99 0.69 0.39 0.22 0.20 0.09 0.06 0.04 0.06 0.07 0.10 0.24 0.20 0.12 0.19 0.26 0.30 0.33 0.31 0.37
2.38 2.51 2.17 1.86 1.75 1.60 1.62 1.83 1.70 1.44 1.59 1.82 2.60 3.22 3.12 3.35 3.42 2.46 1.45 0.92 0.76 0.60 0.62 0.40 0.59 0.80 1.25 1.52 2.07 1.81 1.51 0.94 0.75 0.93 0.78 0.36 0.14 0.05 0.11 0.19 0.21 0.17 0.10 0.25 0.27 0.19 0.13 0.11 0.12 0.20 0.25 0.15 0.17 0.20
2.57 2.46 2.12 1.97 1.93 2.01 2.18 2.11 1.92 1.56 1.82 2.95 3.13 2.92 2.06 1.80 1.13 0.76 0.51 0.41 0.38 0.49 0.56 0.58 0.68 0.95 1.24 1.46 1.56 1.58 1.12 0.94 1.22 0.91 0.55 0.28 0.19 0.10 0.05 0.08 0.14 0.19 0.17 0.29 0.61 0.67 0.55 0.55 0.47 0.38 0.38 0.35 0.33 0.29
2.49 2.48 2.48 2.59 2.50 2.47 2.43 2.19 2.00 1.90 2.78 3.54 2.79 1.83 1.02 0.62 0.37 0.40 0.36 0.40 0.46 0.71 1.01 1.09 1.14 1.19 1.35 1.69 1.30 1.06 1.21 1.29 0.87 0.61 0.51 0.42 0.40 0.36 0.33 0.27 0.23 0.26 0.34 0.40 0.46 0.62 0.64 0.50 0.35 0.39 0.52 0.50 0.37 0.32
2.99 4.00 3.61 2.92 2.65 2.77 2.65 2.64 3.07 3.40 3.63 3.03 2.33 1.13 0.48 0.28 0.36 0.24 0.30 0.41 0.45 0.62 0.97 1.35 1.45 1.46 1.39 1.27 1.23 0.94 0.98 0.76 0.66 0.66 0.66 0.56 0.52 0.52 0.55 0.49 0.45 0.45 0.49 0.58 0.59 0.70 0.64 0.67 0.74 0.72 0.60 0.67 0.58 0.47
4.09 4.65 3.16 2.37 2.66 2.98 3.06 3.53 4.56 4.83 4.26 3.09 1.35 0.56 0.39 0.32 0.31 0.31 0.35 0.40 0.51 0.68 0.91 1.26 1.48 1.05 1.09 1.20 0.85 0.72 0.85 0.76 0.66 0.55 0.45 0.45 0.42 0.45 0.48 0.43 0.44 0.46 0.46 0.54 0.65 0.76 0.88 0.95 0.88 0.79 0.74 0.88 0.82 0.85
3.89 2.84 2.29 2.33 2.92 4.02 5.60 5.70 4.97 4.40 3.02 1.39 0.54 0.38 0.24 0.23 0.23 0.23 0.29 0.38 0.51 0.65 0.98 1.29 0.88 0.79 0.66 0.55 0.55 0.82 0.76 0.54 0.41 0.36 0.35 0.40 0.41 0.41 0.41 0.42 0.43 0.44 0.51 0.61 0.63 0.67 0.67 0.62 0.59 0.73 0.73 0.73 0.59 0.67
3.26 2.64 2.89 2.97 3.35 4.65 5.62 6.02 4.58 3.04 1.27 0.65 0.48 0.29 0.16 0.15 0.15 0.19 0.25 0.34 0.50 0.68 0.97 1.14 1.13 0.68 0.42 0.57 0.59 0.60 0.51 0.32 0.30 0.33 0.34 0.36 0.38 0.40 0.44 0.47 0.44 0.44 0.58 0.58 0.47 0.56 0.59 0.57 0.68 0.67 0.65 0.50 0.53 0.64
4.00 3.94 3.79 3.61 3.80 5.43 5.58 4.61 3.05 1.58 0.87 0.48 0.37 0.29 0.23 0.24 0.25 0.29 0.41 0.46 0.59 1.03 1.34 1.21 0.83 0.61 0.62 0.72 0.56 0.46 0.41 0.33 0.27 0.25 0.29 0.25 0.25 0.24 0.23 0.24 0.31 0.40 0.39 0.37 0.38 0.42 0.38 0.30 0.35 0.44 0.49 0.51 0.46 0.57
5.64 5.21 5.29 5.09 5.56 5.33 4.49 2.88 1.81 0.93 0.54 0.41 0.44 0.29 0.33 0.28 0.31 0.39 0.54 0.62 0.99 1.37 1.16 0.84 0.71 0.73 0.64 0.57 0.47 0.37 0.37 0.33 0.30 0.26 0.26 0.27 0.25 0.15 0.12 0.10 0.10 0.10 0.10 0.12 0.12 0.17 0.17 0.17 0.21 0.21 0.21 0.24 0.28 0.31
5.17 4.85 5.95 6.28 6.08 5.33 4.07 2.34 1.16 0.67 0.40 0.48 0.36 0.32 0.38 0.36 0.35 0.40 0.47 0.83 1.17 0.85 0.72 0.79 0.80 0.70 0.54 0.47 0.50 0.46 0.48 0.35 0.29 0.25 0.23 0.18 0.10 0.07 0.06 0.04 0.04 0.04 0.04 0.05 0.04 0.04 0.04 0.04 0.07 0.11 0.12 0.13 0.15 0.13
4.06 4.40 4.87 5.00 4.88 4.19 2.90 1.32 0.92 0.73 0.52 0.50 0.38 0.38 0.39 0.32 0.36 0.43 0.81 0.70 0.56 0.57 0.63 0.61 0.58 0.62 0.61 0.60 0.57 0.47 0.40 0.31 0.24 0.18 0.13 0.08 0.07 0.06 0.05 0.04 0.03 0.05 0.08 0.05 0.03 0.06 0.06 0.03 0.04 0.07 0.06 0.08 0.16 0.21
4.08 4.91 5.01 4.73 3.38 2.48 1.75 1.40 0.96 0.61 0.63 0.44 0.37 0.32 0.24 0.20 0.36 0.62 0.65 0.36 0.40 0.44 0.48 0.49 0.45 0.50 0.52 0.51 0.47 0.43 0.39 0.31 0.23 0.18 0.14 0.12 0.11 0.09 0.06 0.05 0.06 0.07 0.08 0.08 0.02 0.01 0.01 0.01 0.02 0.06 0.07 0.09 0.14 0.19
5.57 5.88 4.34 3.68 2.18 1.12 0.69 0.52 0.48 0.48 0.47 0.33 0.28 0.24 0.22 0.29 0.45 0.45 0.29 0.26 0.31 0.38 0.43 0.40 0.38 0.38 0.36 0.34 0.30 0.26 0.23 0.28 0.35 0.37 0.32 0.25 0.32 0.32 0.21 0.11 0.06 0.04 0.03 0.06 0.03 0.02 0.00 0.00 0.02 0.04 0.08 0.17 0.23 0.30
4.95 2.84 2.09 1.11 0.69 0.35 0.28 0.25 0.24 0.23 0.24 0.32 0.35 0.35 0.33 0.46 0.58 0.37 0.16 0.25 0.31 0.34 0.31 0.24 0.22 0.20 0.18 0.19 0.25 0.31 0.32 0.34 0.40 0.41 0.36 0.33 0.30 0.25 0.20 0.16 0.12 0.09 0.08 0.10 0.14 0.11 0.06 0.03 0.03 0.06 0.12 0.18 0.32 0.39
3.21 1.89 0.86 0.32 0.25 0.22 0.19 0.17 0.20 0.27 0.32 0.33 0.25 0.23 0.35 0.64 0.37 0.20 0.26 0.30 0.27 0.18 0.12 0.14 0.19 0.21 0.23 0.24 0.24 0.25 0.23 0.24 0.24 0.19 0.25 0.35 0.35 0.29 0.22 0.20 0.20 0.18 0.18 0.17 0.17 0.18 0.16 0.13 0.12 0.14 0.23 0.26 0.28 0.35
1.60 0.59 0.32 0.26 0.17 0.13 0.15 0.16 0.25 0.29 0.25 0.21 0.23 0.22 0.29 0.23 0.16 0.22 0.25 0.28 0.14 0.04 0.07 0.12 0.16 0.19 0.18 0.18 0.20 0.23 0.24 0.25 0.27 0.28 0.32 0.38 0.41 0.41 0.38 0.32 0.34 0.37 0.34 0.26 0.28 0.27 0.26 0.24 0.22 0.24 0.30 0.27 0.19 0.20
0.36 0.21 0.23 0.31 0.25 0.20 0.19 0.16 0.13 0.12 0.12 0.14 0.15 0.12 0.13 0.19 0.25 0.24 0.28 0.16 0.04 0.04 0.07 0.11 0.14 0.17 0.21 0.23 0.25 0.27 0.27 0.27 0.23 0.22 0.17 0.21 0.29 0.42 0.47 0.43 0.44 0.45 0.40 0.39 0.37 0.35 0.39 0.47 0.52 0.60 0.57 0.45 0.33 0.29
0.08 0.03 0.04 0.08 0.15 0.22 0.18 0.15 0.13 0.15 0.15 0.15 0.14 0.15 0.17 0.28 0.40 0.33 0.16 0.06 0.05 0.08 0.12 0.16 0.19 0.22 0.25 0.27 0.28 0.28 0.30 0.33 0.31 0.26 0.28 0.23 0.24 0.34 0.41 0.43 0.46 0.49 0.49 0.47 0.52 0.55 0.54 0.55 0.54 0.52 0.47 0.41 0.37 0.34
0.03 0.02 0.03 0.03 0.05 0.10 0.15 0.16 0.15 0.15 0.15 0.16 0.12 0.10 0.14 0.22 0.30 0.24 0.10 0.06 0.08 0.13 0.17 0.21 0.25 0.30 0.31 0.33 0.35 0.34 0.36 0.41 0.46 0.46 0.44 0.47 0.40 0.37 0.42 0.47 0.50 0.52 0.54 0.52 0.48 0.45 0.43 0.37 0.33 0.32 0.31 0.30 0.30 0.32
0.06 0.04 0.02 0.02 0.06 0.10 0.11 0.11 0.11 0.14 0.16 0.13 0.16 0.15 0.16 0.13 0.12 0.14 0.13 0.10 0.12 0.14 0.19 0.23 0.24 0.29 0.34 0.36 0.39 0.46 0.46 0.44 0.47 0.55 0.56 0.53 0.51 0.46 0.51 0.56 0.55 0.55 0.57 0.55 0.50 0.49 0.47 0.46 0.45 0.42 0.42 0.41 0.40 0.37
0.16 0.14 0.11 0.10 0.14 0.12 0.09 0.10 0.12 0.12 0.11 0.11 0.12 0.13 0.15 0.14 0.12 0.12 0.15 0.16 0.17 0.17 0.18 0.23 0.28 0.31 0.31 0.32 0.35 0.40 0.44 0.46 0.50 0.62 0.74 0.77 0.72 0.72 0.69 0.59 0.55 0.56 0.57 0.53 0.53 0.54 0.55 0.51 0.49 0.48 0.46 0.45 0.43 0.42